Regional Weather Roundup
Issued by NWS

Home | Current Version | Previous Version | Text Only | Print | Product List | Glossary On
Versions: 1 2 3 4 5 6 7 8 9 10 11 12 13 14 15 16 17 18 19 20 21 22 23 24 25 26 27 28 29 30 31 32 33 34 35 36 37 38 39 40 41 42 43 44 45 46 47 48 49 50
000
ASCA44 KEWX 251020
RWRMX

LATIN AMERICA AND CARIBBEAN REGIONAL WEATHER ROUNDUP
NATIONAL WEATHER SERVICE AUSTIN/SAN ANTONIO TX
500 AM CDT WED APR 25 2018

NOTE: "FAIR" INDICATED FEW OR NO CLOUDS BELOW 12,000 FEET WITH NO
SIGNIFICANT WEATHER AND/OR OBSTRUCTIONS TO VISIBILITY.

BAJA CALIFORNIA

CITY           SKY/WX    TMP DP  RH WIND       PRES   REMARKS
S.J. DEL CABO    N/A    N/A N/A N/A MISG        N/A
TIJUANA        CLOUDY    55  54  94 CALM      30.08  FOG

NORTHWESTERN MEXICO

CITY           SKY/WX    TMP DP  RH WIND       PRES   REMARKS
DURANGO        CLEAR     55  39  54 SE3       30.22
HERMOSILLO     MOCLDY    73  34  23 CALM      29.93S

NORTHEASTERN MEXICO

CITY           SKY/WX    TMP DP  RH WIND       PRES   REMARKS
MONCLOVA         N/A    N/A N/A N/A MISG        N/A
MONTERREY      CLOUDY    70  64  83 E8        29.98F
REYNOSA        PTCLDY    70  64  83 CALM      29.97
TORREON        PTCLDY    72  54  53 SE5       30.04
CD. VICTORIA     N/A    N/A N/A N/A MISG        N/A

WESTERN MEXICO

CITY           SKY/WX    TMP DP  RH WIND       PRES   REMARKS
AGUASCALIENTES CLEAR     55  28  35 E5        30.25
COLIMA           N/A    N/A N/A N/A MISG        N/A
DEL BAJIO      MOCLDY    61  52  72 E5        30.29S
GUADALAJARA    PTCLDY    61  37  41 CALM      30.19
MAZATLAN       MOCLDY    61  59  94 NE3       29.91F
P. VALLARTA    CLEAR     68  68 100 N5        29.91F
URUAPAN          N/A    N/A N/A N/A MISG        N/A
ZACATECAS      CLEAR     52  45  76 SW6       30.28

CENTRAL MEXICO

CITY           SKY/WX    TMP DP  RH WIND       PRES   REMARKS
CUERNAVACA       N/A    N/A N/A N/A MISG        N/A
MEXICO CITY    CLEAR     57  48  72 NW5       30.34S
MORELIA        CLEAR     61  52  72 CALM      30.25
POZA RICA        N/A    N/A N/A N/A MISG        N/A
PUEBLA         MOCLDY    55  50  82 W3        30.34
S. LUIS POTOSI MOCLDY    59  52  77 SE5       30.24
TAMPICO        MOCLDY    75  73  94 CALM      29.97
TOLUCA         PTCLDY    48  45  87 CALM      30.41

SOUTHERN MEXICO

CITY           SKY/WX    TMP DP  RH WIND       PRES   REMARKS
ACAPULCO       PTCLDY    75  68  78 CALM      29.93R
B. DE HUATULCO   N/A    N/A N/A N/A MISG        N/A
P. ESCONDIDO     N/A    N/A N/A N/A MISG        N/A
VERACRUZ         N/A    N/A N/A N/A MISG        N/A

YUCATAN PENINSULA

CITY           SKY/WX    TMP DP  RH WIND       PRES   REMARKS
CAMPECHE       CLEAR     75  72  88 CALM      29.90S
CANCUN         PTCLDY    73  73 100 NW2       29.96S
CHETUMAL       PTCLDY    75  73  94 CALM      29.94
CD. DEL CARMEN   N/A    N/A N/A N/A MISG        N/A
COZUMEL        PTCLDY    73  73 100 CALM      29.94S
MERIDA         MOCLDY    72  70  94 CALM      29.95F
MINATITLAN     CLEAR     79  77  94 N12       29.93
TAPACHULA      PTCLDY    75  73  94 CALM      29.86F
VILLAHERMOSA   MOCLDY    77  77 100 CALM      29.94

CENTRAL AMERICA

CITY           SKY/WX    TMP DP  RH WIND       PRES   REMARKS
MANAGUA        MOSUNNY   77  72  83 SE5       29.86S

CARIBBEAN

CITY           SKY/WX    TMP DP  RH WIND       PRES   REMARKS
ARUBA          PTCLDY    81  75  83 E20       29.89R
CURACAO          N/A     79  72  78 SE9       29.92S
KINGSTON       PTCLDY    79  73  83 NW5       29.92S
NASSAU         MOCLDY    75  72  88 CALM      29.96R
SAN JUAN       PTCLDY    75  72  88 CALM      30.01
SANTO DOMINGO  PTCLDY    72  70  94 NE5       29.97S
ST. KITTS      PTCLDY    77  72  83 E9        30.00
ST. MAARTEN    MOCLDY    77  72  83 E9        30.00S
ST. THOMAS     MOCLDY    77  73  88 E5        30.00

$$




USA.gov is the U.S. government's official web portal to all federal, state and local government web resources and services.